status,avgMeasuredTime,avgSpeed,extID,medianMeasuredTime,TIMESTAMP,vehicleCount,_id,REPORT_ID
OK,91,60,1039,91,2014-08-01T08:10:00,0,20747916,203663
OK,91,60,1039,91,2014-08-01T08:15:00,0,20748365,203663
OK,91,60,1039,91,2014-08-01T08:20:00,0,20748814,203663
OK,91,60,1039,91,2014-08-01T08:25:00,0,20749263,203663
OK,91,60,1039,91,2014-08-01T08:30:00,0,20749712,203663
OK,91,60,1039,91,2014-08-01T08:40:00,0,20750610,203663
OK,91,60,1039,91,2014-08-01T08:50:00,0,20751508,203663
OK,91,60,1039,91,2014-08-01T09:00:00,0,20752406,203663
OK,91,60,1039,91,2014-08-01T09:10:00,0,20753304,203663
OK,91,60,1039,91,2014-08-01T09:20:00,0,20754202,203663
OK,91,60,1039,91,2014-08-01T09:25:00,0,20754651,203663
OK,91,60,1039,91,2014-08-01T09:30:00,0,20755100,203663
OK,91,60,1039,91,2014-08-01T09:35:00,0,20755549,203663
OK,91,60,1039,91,2014-08-01T09:40:00,0,20755998,203663
OK,139,39,1039,139,2014-08-01T09:50:00,1,20756896,203663
OK,139,39,1039,139,2014-08-01T10:00:00,0,20757794,203663
OK,160,34,1039,160,2014-08-01T10:20:00,0,20759590,203663
OK,160,34,1039,160,2014-08-01T10:30:00,0,20760488,203663
OK,160,34,1039,160,2014-08-01T10:40:00,0,20761386,203663
OK,111,49,1039,111,2014-08-01T11:20:00,0,20764977,203663
OK,130,42,1039,130,2014-08-01T11:30:00,1,20765875,203663
OK,130,42,1039,130,2014-08-01T11:40:00,0,20766773,203663
OK,130,42,1039,130,2014-08-01T11:50:00,0,20767671,203663
OK,130,42,1039,130,2014-08-01T12:00:00,0,20768569,203663
OK,130,42,1039,130,2014-08-01T12:10:00,0,20769467,203663
OK,154,35,1039,154,2014-08-01T12:20:00,1,20770365,203663
OK,154,35,1039,154,2014-08-01T12:30:00,0,20771263,203663
OK,154,35,1039,154,2014-08-01T12:40:00,0,20772161,203663
OK,185,29,1039,185,2014-08-01T12:50:00,1,20773059,203663
OK,115,48,1039,115,2014-08-01T13:00:00,1,20773957,203663
OK,122,45,1039,122,2014-08-01T13:10:00,1,20774855,203663
OK,134,41,1039,134,2014-08-01T13:20:00,1,20775753,203663
OK,123,44,1039,123,2014-08-01T13:30:00,1,20776651,203663
OK,123,44,1039,123,2014-08-01T13:40:00,0,20777549,203663
OK,214,25,1039,214,2014-08-01T13:50:00,1,20778447,203663
OK,214,25,1039,214,2014-08-01T14:05:00,0,20779794,203663
OK,214,25,1039,214,2014-08-01T14:10:00,0,20780243,203663
OK,153,36,1039,153,2014-08-01T14:15:00,1,20780692,203663
OK,153,36,1039,153,2014-08-01T14:20:00,1,20781141,203663
OK,101,54,1039,101,2014-08-01T14:25:00,1,20781590,203663
OK,101,54,1039,101,2014-08-01T14:30:00,3,20782039,203663
OK,107,51,1039,107,2014-08-01T14:35:00,2,20782488,203663
OK,107,51,1039,107,2014-08-01T14:40:00,0,20782937,203663
OK,107,51,1039,107,2014-08-01T14:45:00,0,20783386,203663
OK,107,51,1039,107,2014-08-01T14:50:00,0,20783835,203663
OK,94,58,1039,94,2014-08-01T15:00:00,1,20784733,203663
OK,94,58,1039,94,2014-08-01T15:05:00,1,20785182,203663
OK,94,58,1039,94,2014-08-01T15:10:00,0,20785631,203663
OK,94,58,1039,94,2014-08-01T15:15:00,0,20786080,203663
OK,94,58,1039,94,2014-08-01T15:20:00,0,20786529,203663
OK,94,58,1039,94,2014-08-01T15:25:00,0,20786978,203663
OK,94,58,1039,94,2014-08-01T15:30:00,0,20787427,203663
OK,94,58,1039,94,2014-08-01T15:35:00,0,20787876,203663
OK,112,49,1039,112,2014-08-01T15:40:00,2,20788325,203663
OK,112,49,1039,112,2014-08-01T15:45:00,2,20788774,203663
OK,112,49,1039,112,2014-08-01T15:50:00,0,20789223,203663
OK,112,49,1039,112,2014-08-01T15:55:00,0,20789672,203663
OK,112,49,1039,112,2014-08-01T16:00:00,0,20790121,203663
OK,112,49,1039,112,2014-08-01T16:05:00,0,20790570,203663
OK,112,49,1039,112,2014-08-01T16:10:00,0,20791019,203663
OK,112,49,1039,112,2014-08-01T16:15:00,0,20791468,203663
OK,108,51,1039,108,2014-08-01T16:20:00,1,20791917,203663
OK,108,51,1039,108,2014-08-01T16:25:00,1,20792366,203663
OK,108,51,1039,108,2014-08-01T16:30:00,0,20792815,203663
OK,112,49,1039,112,2014-08-01T16:35:00,2,20793264,203663
OK,142,38,1039,142,2014-08-01T16:40:00,1,20793713,203663
OK,142,38,1039,142,2014-08-01T16:45:00,0,20794162,203663
OK,142,38,1039,142,2014-08-01T16:50:00,0,20794611,203663
OK,120,46,1039,120,2014-08-01T16:55:00,1,20795060,203663
OK,120,46,1039,120,2014-08-01T17:00:00,1,20795509,203663
OK,116,47,1039,116,2014-08-01T17:05:00,1,20795958,203663
OK,116,47,1039,116,2014-08-01T17:10:00,1,20796407,203663
OK,116,47,1039,116,2014-08-01T17:15:00,0,20796856,203663
OK,116,47,1039,116,2014-08-01T17:20:00,0,20797305,203663
OK,95,58,1039,95,2014-08-01T17:25:00,1,20797754,203663
OK,95,58,1039,95,2014-08-01T17:30:00,1,20798203,203663
OK,95,58,1039,95,2014-08-01T17:35:00,0,20798652,203663
OK,154,35,1039,154,2014-08-01T17:40:00,1,20799101,203663
OK,154,35,1039,154,2014-08-01T17:45:00,0,20799550,203663
OK,154,35,1039,154,2014-08-01T17:50:00,0,20799999,203663
OK,154,35,1039,154,2014-08-01T17:55:00,0,20800448,203663
OK,85,64,1039,85,2014-08-01T18:00:00,1,20800897,203663
OK,85,64,1039,85,2014-08-01T18:05:00,1,20801346,203663
OK,85,64,1039,85,2014-08-01T18:10:00,0,20801795,203663
OK,85,64,1039,85,2014-08-01T18:15:00,0,20802244,203663
OK,85,64,1039,85,2014-08-01T18:20:00,0,20802693,203663
OK,85,64,1039,85,2014-08-01T18:25:00,0,20803142,203663
OK,85,64,1039,85,2014-08-01T18:30:00,0,20803591,203663
OK,85,64,1039,85,2014-08-01T18:35:00,0,20804040,203663
OK,85,64,1039,85,2014-08-01T18:40:00,0,20804489,203663
OK,85,64,1039,85,2014-08-01T18:45:00,0,20804938,203663
OK,85,64,1039,85,2014-08-01T18:50:00,0,20805387,203663
OK,85,64,1039,85,2014-08-01T18:55:00,0,20805836,203663
OK,85,64,1039,85,2014-08-01T19:00:00,0,20806285,203663
OK,85,64,1039,85,2014-08-01T19:05:00,0,20806734,203663
OK,85,64,1039,85,2014-08-01T19:10:00,0,20807183,203663
OK,85,64,1039,85,2014-08-01T19:15:00,0,20807632,203663
OK,85,64,1039,85,2014-08-01T19:20:00,0,20808081,203663
OK,85,64,1039,85,2014-08-01T19:25:00,0,20808530,203663
OK,85,64,1039,85,2014-08-01T19:30:00,0,20808979,203663
OK,85,64,1039,85,2014-08-01T19:35:00,0,20809428,203663
OK,85,64,1039,85,2014-08-01T19:40:00,0,20809877,203663
OK,85,64,1039,85,2014-08-01T19:45:00,0,20810326,203663
OK,85,64,1039,85,2014-08-01T19:50:00,0,20810775,203663
OK,85,64,1039,85,2014-08-01T19:55:00,0,20811224,203663
OK,85,64,1039,85,2014-08-01T22:00:00,0,20816953,203663
OK,85,64,1039,85,2014-08-02T00:00:00,0,20823392,203663
OK,85,64,1039,85,2014-08-02T00:05:00,0,20823841,203663
OK,85,64,1039,85,2014-08-02T00:10:00,0,20824290,203663
OK,85,64,1039,85,2014-08-02T00:15:00,0,20824739,203663
OK,85,64,1039,85,2014-08-02T00:20:00,0,20825188,203663
OK,85,64,1039,85,2014-08-02T00:25:00,0,20825637,203663
OK,85,64,1039,85,2014-08-02T00:30:00,0,20826086,203663
OK,85,64,1039,85,2014-08-02T00:35:00,0,20826535,203663
OK,85,64,1039,85,2014-08-02T00:40:00,0,20826984,203663
OK,85,64,1039,85,2014-08-02T00:45:00,0,20827433,203663
OK,85,64,1039,85,2014-08-02T00:50:00,0,20827882,203663
OK,85,64,1039,85,2014-08-02T00:55:00,0,20828331,203663
OK,85,64,1039,85,2014-08-02T01:00:00,0,20828780,203663
OK,85,64,1039,85,2014-08-02T01:05:00,0,20829229,203663
OK,85,64,1039,85,2014-08-02T01:10:00,0,20829678,203663
OK,85,64,1039,85,2014-08-02T01:15:00,0,20830127,203663
OK,85,64,1039,85,2014-08-02T01:20:00,0,20830576,203663
OK,85,64,1039,85,2014-08-02T01:30:00,0,20831474,203663
OK,85,64,1039,85,2014-08-02T01:35:00,0,20831923,203663
OK,85,64,1039,85,2014-08-02T01:40:00,0,20832372,203663
OK,85,64,1039,85,2014-08-02T01:45:00,0,20832821,203663
OK,85,64,1039,85,2014-08-02T01:50:00,0,20833270,203663
OK,85,64,1039,85,2014-08-02T01:55:00,0,20833719,203663
OK,85,64,1039,85,2014-08-02T02:00:00,0,20834168,203663
OK,85,64,1039,85,2014-08-02T02:05:00,0,20834617,203663
OK,85,64,1039,85,2014-08-02T02:10:00,0,20835066,203663
OK,85,64,1039,85,2014-08-02T02:15:00,0,20835515,203663
OK,85,64,1039,85,2014-08-02T02:20:00,0,20835964,203663
OK,85,64,1039,85,2014-08-02T02:25:00,0,20836413,203663
OK,85,64,1039,85,2014-08-02T02:30:00,0,20836862,203663
OK,85,64,1039,85,2014-08-02T02:35:00,0,20837311,203663
OK,85,64,1039,85,2014-08-02T02:40:00,0,20837760,203663
OK,85,64,1039,85,2014-08-02T02:45:00,0,20838209,203663
OK,85,64,1039,85,2014-08-02T02:50:00,0,20838658,203663
OK,85,64,1039,85,2014-08-02T02:55:00,0,20839107,203663
OK,85,64,1039,85,2014-08-02T03:00:00,0,20839556,203663
OK,85,64,1039,85,2014-08-02T03:05:00,0,20840005,203663
OK,85,64,1039,85,2014-08-02T03:10:00,0,20840454,203663
OK,85,64,1039,85,2014-08-02T03:15:00,0,20840903,203663
OK,85,64,1039,85,2014-08-02T03:20:00,0,20841352,203663
OK,85,64,1039,85,2014-08-02T03:25:00,0,20841801,203663
OK,85,64,1039,85,2014-08-02T03:30:00,0,20842250,203663
OK,85,64,1039,85,2014-08-02T03:35:00,0,20842699,203663
OK,85,64,1039,85,2014-08-02T03:40:00,0,20843148,203663
OK,85,64,1039,85,2014-08-02T03:45:00,0,20843597,203663
OK,85,64,1039,85,2014-08-02T03:50:00,0,20844046,203663
OK,85,64,1039,85,2014-08-02T03:55:00,0,20844495,203663
OK,85,64,1039,85,2014-08-02T06:00:00,0,20851949,203663
OK,85,64,1039,85,2014-08-02T06:05:00,0,20852398,203663
OK,85,64,1039,85,2014-08-02T06:10:00,0,20852847,203663
OK,85,64,1039,85,2014-08-02T06:15:00,0,20853296,203663
OK,85,64,1039,85,2014-08-02T06:20:00,0,20853745,203663
OK,85,64,1039,85,2014-08-02T06:25:00,0,20854194,203663
OK,85,64,1039,85,2014-08-02T06:30:00,0,20854643,203663
OK,85,64,1039,85,2014-08-02T06:35:00,0,20855092,203663
OK,85,64,1039,85,2014-08-02T06:40:00,0,20855541,203663
OK,85,64,1039,85,2014-08-02T06:45:00,0,20855990,203663
OK,85,64,1039,85,2014-08-02T06:50:00,0,20856439,203663
OK,85,64,1039,85,2014-08-02T06:55:00,0,20856888,203663
OK,85,64,1039,85,2014-08-02T07:00:00,0,20857337,203663
OK,85,64,1039,85,2014-08-02T07:05:00,0,20857786,203663
OK,85,64,1039,85,2014-08-02T07:10:00,0,20858235,203663
OK,85,64,1039,85,2014-08-02T07:15:00,0,20858684,203663
OK,85,64,1039,85,2014-08-02T07:20:00,0,20859133,203663
OK,85,64,1039,85,2014-08-02T07:25:00,0,20859582,203663
OK,85,64,1039,85,2014-08-02T07:30:00,0,20860031,203663
OK,85,64,1039,85,2014-08-02T07:35:00,0,20860480,203663
OK,85,64,1039,85,2014-08-02T07:40:00,0,20860929,203663
OK,85,64,1039,85,2014-08-02T07:45:00,0,20861378,203663
OK,85,64,1039,85,2014-08-02T07:50:00,0,20861827,203663
OK,85,64,1039,85,2014-08-02T07:55:00,0,20862276,203663
OK,85,64,1039,85,2014-08-02T08:00:00,0,20862725,203663
OK,85,64,1039,85,2014-08-02T08:05:00,0,20863174,203663
OK,85,64,1039,85,2014-08-02T08:10:00,0,20863623,203663
OK,85,64,1039,85,2014-08-02T08:15:00,0,20864072,203663
OK,85,64,1039,85,2014-08-02T08:20:00,0,20864521,203663
OK,85,64,1039,85,2014-08-02T08:25:00,0,20864970,203663
OK,85,64,1039,85,2014-08-02T08:30:00,0,20865419,203663
OK,85,64,1039,85,2014-08-02T08:35:00,0,20865868,203663
OK,85,64,1039,85,2014-08-02T08:40:00,0,20866317,203663
OK,85,64,1039,85,2014-08-02T08:45:00,0,20866766,203663
OK,85,64,1039,85,2014-08-02T08:50:00,0,20867215,203663
OK,85,64,1039,85,2014-08-02T08:55:00,0,20867664,203663
OK,85,64,1039,85,2014-08-02T09:00:00,0,20868113,203663
OK,85,64,1039,85,2014-08-02T09:05:00,0,20868562,203663
OK,85,64,1039,85,2014-08-02T09:10:00,0,20869011,203663
OK,85,64,1039,85,2014-08-02T09:15:00,0,20869460,203663
OK,85,64,1039,85,2014-08-02T09:20:00,0,20869909,203663
OK,85,64,1039,85,2014-08-02T09:25:00,0,20870358,203663
OK,85,64,1039,85,2014-08-02T09:30:00,0,20870807,203663
OK,85,64,1039,85,2014-08-02T09:35:00,0,20871256,203663
OK,85,64,1039,85,2014-08-02T09:40:00,0,20871705,203663
OK,173,31,1039,173,2014-08-02T09:45:00,2,20872154,203663
OK,173,31,1039,173,2014-08-02T09:50:00,2,20872603,203663
OK,173,31,1039,173,2014-08-02T09:55:00,0,20873052,203663
OK,173,31,1039,173,2014-08-02T10:00:00,0,20873501,203663
OK,173,31,1039,173,2014-08-02T10:05:00,0,20873950,203663
OK,173,31,1039,173,2014-08-02T10:10:00,0,20874399,203663
OK,173,31,1039,173,2014-08-02T10:15:00,0,20874848,203663
OK,173,31,1039,173,2014-08-02T10:20:00,0,20875297,203663
OK,173,31,1039,173,2014-08-02T10:25:00,0,20875746,203663
OK,173,31,1039,173,2014-08-02T10:30:00,0,20876195,203663
OK,173,31,1039,173,2014-08-02T10:35:00,0,20876644,203663
OK,173,31,1039,173,2014-08-02T10:40:00,0,20877093,203663
OK,173,31,1039,173,2014-08-02T10:45:00,0,20877542,203663
OK,173,31,1039,173,2014-08-02T10:50:00,0,20877991,203663
OK,173,31,1039,173,2014-08-02T10:55:00,0,20878440,203663
OK,173,31,1039,173,2014-08-02T11:00:00,0,20878889,203663
OK,173,31,1039,173,2014-08-02T11:05:00,0,20879338,203663
OK,173,31,1039,173,2014-08-02T11:10:00,0,20879787,203663
OK,173,31,1039,173,2014-08-02T11:15:00,0,20880236,203663
OK,173,31,1039,173,2014-08-02T11:20:00,0,20880685,203663
OK,173,31,1039,173,2014-08-02T11:25:00,0,20881134,203663
OK,173,31,1039,173,2014-08-02T11:30:00,0,20881583,203663
OK,173,31,1039,173,2014-08-02T11:35:00,0,20882032,203663
OK,117,47,1039,117,2014-08-02T11:40:00,1,20882481,203663
OK,117,47,1039,117,2014-08-02T11:45:00,1,20882930,203663
OK,117,47,1039,117,2014-08-02T11:50:00,0,20883379,203663
OK,117,47,1039,117,2014-08-02T11:55:00,0,20883828,203663
OK,117,47,1039,117,2014-08-02T12:00:00,0,20884277,203663
OK,117,47,1039,117,2014-08-02T12:05:00,0,20884726,203663
OK,117,47,1039,117,2014-08-02T12:10:00,0,20885175,203663
OK,117,47,1039,117,2014-08-02T12:15:00,0,20885624,203663
OK,117,47,1039,117,2014-08-02T12:20:00,0,20886073,203663
OK,117,47,1039,117,2014-08-02T12:25:00,0,20886522,203663
OK,117,47,1039,117,2014-08-02T12:30:00,0,20886971,203663
OK,117,47,1039,117,2014-08-02T12:35:00,0,20887420,203663
OK,117,47,1039,117,2014-08-02T12:40:00,0,20887869,203663
OK,117,47,1039,117,2014-08-02T12:45:00,0,20888318,203663
OK,117,47,1039,117,2014-08-02T12:50:00,0,20888767,203663
OK,117,47,1039,117,2014-08-02T12:55:00,0,20889216,203663
OK,117,47,1039,117,2014-08-02T13:00:00,0,20889665,203663
OK,117,47,1039,117,2014-08-02T13:05:00,0,20890114,203663
OK,117,47,1039,117,2014-08-02T13:10:00,0,20890563,203663
OK,117,47,1039,117,2014-08-02T13:15:00,0,20891012,203663
OK,117,47,1039,117,2014-08-02T13:20:00,0,20891461,203663
OK,117,47,1039,117,2014-08-02T13:25:00,0,20891910,203663
OK,117,47,1039,117,2014-08-02T13:30:00,0,20892359,203663
OK,117,47,1039,117,2014-08-02T13:35:00,0,20892808,203663
OK,117,47,1039,117,2014-08-02T13:40:00,0,20893257,203663
OK,117,47,1039,117,2014-08-02T13:45:00,0,20893706,203663
OK,117,47,1039,117,2014-08-02T13:50:00,0,20894155,203663
OK,117,47,1039,117,2014-08-02T13:55:00,0,20894604,203663
OK,117,47,1039,117,2014-08-02T14:00:00,0,20895053,203663
OK,117,47,1039,117,2014-08-02T14:05:00,0,20895502,203663
OK,117,47,1039,117,2014-08-02T14:10:00,0,20895951,203663
OK,117,47,1039,117,2014-08-02T14:15:00,0,20896400,203663
OK,117,47,1039,117,2014-08-02T14:20:00,0,20896849,203663
OK,117,47,1039,117,2014-08-02T14:25:00,0,20897298,203663
OK,117,47,1039,117,2014-08-02T14:30:00,0,20897747,203663
OK,117,47,1039,117,2014-08-02T14:35:00,0,20898196,203663
OK,117,47,1039,117,2014-08-02T14:40:00,0,20898645,203663
OK,117,47,1039,117,2014-08-02T14:45:00,0,20899094,203663
OK,117,47,1039,117,2014-08-02T14:50:00,0,20899543,203663
OK,117,47,1039,117,2014-08-02T14:55:00,0,20899992,203663
OK,117,47,1039,117,2014-08-02T15:00:00,0,20900441,203663
OK,117,47,1039,117,2014-08-02T15:05:00,0,20900890,203663
OK,117,47,1039,117,2014-08-02T15:10:00,0,20901339,203663
OK,117,47,1039,117,2014-08-02T15:15:00,0,20901788,203663
OK,117,47,1039,117,2014-08-02T15:20:00,0,20902237,203663
OK,117,47,1039,117,2014-08-02T15:25:00,0,20902686,203663
OK,117,47,1039,117,2014-08-02T15:30:00,0,20903135,203663
OK,117,47,1039,117,2014-08-02T15:35:00,0,20903584,203663
OK,117,47,1039,117,2014-08-02T15:40:00,0,20904033,203663
OK,117,47,1039,117,2014-08-02T15:45:00,0,20904482,203663
OK,117,47,1039,117,2014-08-02T15:50:00,0,20904931,203663
OK,117,47,1039,117,2014-08-02T15:55:00,0,20905380,203663
OK,117,47,1039,117,2014-08-02T16:00:00,0,20905829,203663
OK,117,47,1039,117,2014-08-02T16:05:00,0,20906278,203663
OK,117,47,1039,117,2014-08-02T16:10:00,0,20906727,203663
OK,117,47,1039,117,2014-08-02T16:15:00,0,20907176,203663
OK,117,47,1039,117,2014-08-02T16:20:00,0,20907625,203663
OK,117,47,1039,117,2014-08-02T16:25:00,0,20908074,203663
OK,117,47,1039,117,2014-08-02T16:30:00,0,20908523,203663
OK,117,47,1039,117,2014-08-02T16:35:00,0,20908972,203663
OK,117,47,1039,117,2014-08-02T16:40:00,0,20909421,203663
OK,117,47,1039,117,2014-08-02T16:45:00,0,20909870,203663
OK,117,47,1039,117,2014-08-02T16:50:00,0,20910319,203663
OK,117,47,1039,117,2014-08-02T16:55:00,0,20910768,203663
OK,130,42,1039,130,2014-08-02T17:00:00,0,20911217,203663
OK,130,42,1039,130,2014-08-02T17:05:00,0,20911666,203663
OK,130,42,1039,130,2014-08-02T17:10:00,0,20912115,203663
OK,130,42,1039,130,2014-08-02T17:15:00,0,20912564,203663
OK,130,42,1039,130,2014-08-02T17:20:00,0,20913013,203663
OK,130,42,1039,130,2014-08-02T17:25:00,0,20913462,203663
OK,130,42,1039,130,2014-08-02T17:30:00,0,20913911,203663
OK,130,42,1039,130,2014-08-02T17:35:00,0,20914360,203663
OK,130,42,1039,130,2014-08-02T17:40:00,0,20914809,203663
OK,130,42,1039,130,2014-08-02T17:45:00,0,20915258,203663
OK,130,42,1039,130,2014-08-02T17:50:00,0,20915707,203663
OK,130,42,1039,130,2014-08-02T17:55:00,0,20916156,203663
OK,138,40,1039,138,2014-08-02T18:00:00,1,20916605,203663
OK,138,40,1039,138,2014-08-02T18:05:00,0,20917054,203663
OK,138,40,1039,138,2014-08-02T18:10:00,0,20917503,203663
OK,138,40,1039,138,2014-08-02T18:15:00,0,20917952,203663
OK,138,40,1039,138,2014-08-02T18:20:00,0,20918401,203663
OK,138,40,1039,138,2014-08-02T18:25:00,0,20918850,203663
OK,138,40,1039,138,2014-08-02T18:30:00,0,20919299,203663
OK,138,40,1039,138,2014-08-02T18:35:00,0,20919748,203663
OK,138,40,1039,138,2014-08-02T18:40:00,0,20920197,203663
OK,138,40,1039,138,2014-08-02T18:45:00,0,20920646,203663
OK,138,40,1039,138,2014-08-02T18:50:00,0,20921095,203663
OK,138,40,1039,138,2014-08-02T18:55:00,0,20921544,203663
OK,138,40,1039,138,2014-08-02T19:00:00,0,20921993,203663
OK,138,40,1039,138,2014-08-02T19:05:00,0,20922442,203663
OK,138,40,1039,138,2014-08-02T19:10:00,0,20922891,203663
OK,138,40,1039,138,2014-08-02T19:15:00,0,20923340,203663
OK,138,40,1039,138,2014-08-02T19:20:00,0,20923789,203663
OK,138,40,1039,138,2014-08-02T19:25:00,0,20924238,203663
OK,138,40,1039,138,2014-08-02T19:30:00,0,20924687,203663
OK,138,40,1039,138,2014-08-02T19:35:00,0,20925136,203663
OK,138,40,1039,138,2014-08-02T19:40:00,0,20925585,203663
OK,138,40,1039,138,2014-08-02T19:45:00,0,20926034,203663
OK,138,40,1039,138,2014-08-02T19:50:00,0,20926483,203663
OK,138,40,1039,138,2014-08-02T19:55:00,0,20926932,203663
OK,138,40,1039,138,2014-08-02T20:00:00,0,20927381,203663
OK,138,40,1039,138,2014-08-02T20:05:00,0,20927830,203663
OK,138,40,1039,138,2014-08-02T20:10:00,0,20928279,203663
OK,138,40,1039,138,2014-08-02T20:15:00,0,20928728,203663
OK,138,40,1039,138,2014-08-02T20:20:00,0,20929177,203663
OK,138,40,1039,138,2014-08-02T20:25:00,0,20929626,203663
OK,138,40,1039,138,2014-08-02T20:30:00,0,20930075,203663
OK,138,40,1039,138,2014-08-02T20:35:00,0,20930524,203663
OK,138,40,1039,138,2014-08-02T20:40:00,0,20930973,203663
OK,138,40,1039,138,2014-08-02T20:45:00,0,20931422,203663
OK,138,40,1039,138,2014-08-02T20:50:00,0,20931871,203663
OK,138,40,1039,138,2014-08-02T20:55:00,0,20932320,203663
OK,81,68,1039,81,2014-08-02T21:00:00,1,20932769,203663
OK,81,68,1039,81,2014-08-02T21:05:00,1,20933218,203663
OK,81,68,1039,81,2014-08-02T21:10:00,0,20933667,203663
OK,81,68,1039,81,2014-08-02T21:15:00,0,20934116,203663
OK,81,68,1039,81,2014-08-02T21:20:00,0,20934565,203663
OK,81,68,1039,81,2014-08-02T21:25:00,0,20935014,203663
OK,81,68,1039,81,2014-08-02T21:30:00,0,20935463,203663
OK,81,68,1039,81,2014-08-02T21:35:00,0,20935912,203663
OK,81,68,1039,81,2014-08-02T21:40:00,0,20936361,203663
OK,81,68,1039,81,2014-08-02T21:45:00,0,20936810,203663
OK,81,68,1039,81,2014-08-02T21:50:00,0,20937259,203663
OK,81,68,1039,81,2014-08-02T21:55:00,0,20937708,203663
OK,81,68,1039,81,2014-08-02T22:00:00,0,20938157,203663
OK,81,68,1039,81,2014-08-02T22:05:00,0,20938606,203663
OK,81,68,1039,81,2014-08-02T22:10:00,0,20939055,203663
OK,81,68,1039,81,2014-08-02T22:15:00,0,20939504,203663
OK,81,68,1039,81,2014-08-02T22:20:00,0,20939953,203663
OK,81,68,1039,81,2014-08-02T22:25:00,0,20940402,203663
OK,81,68,1039,81,2014-08-02T22:30:00,0,20940851,203663
OK,81,68,1039,81,2014-08-02T22:35:00,0,20941300,203663
OK,81,68,1039,81,2014-08-02T22:40:00,0,20941749,203663
OK,81,68,1039,81,2014-08-02T22:45:00,0,20942198,203663
OK,81,68,1039,81,2014-08-02T22:50:00,0,20942647,203663
OK,81,68,1039,81,2014-08-02T22:55:00,0,20943096,203663
OK,81,68,1039,81,2014-08-02T23:00:00,0,20943545,203663
OK,81,68,1039,81,2014-08-02T23:10:00,0,20943994,203663
OK,81,68,1039,81,2014-08-02T23:15:00,0,20944443,203663
OK,81,68,1039,81,2014-08-02T23:20:00,0,20944892,203663
OK,81,68,1039,81,2014-08-02T23:25:00,0,20945341,203663
OK,81,68,1039,81,2014-08-02T23:30:00,0,20945790,203663
OK,81,68,1039,81,2014-08-02T23:35:00,0,20946239,203663
OK,81,68,1039,81,2014-08-02T23:40:00,0,20946688,203663
OK,81,68,1039,81,2014-08-02T23:45:00,0,20947137,203663
OK,81,68,1039,81,2014-08-02T23:50:00,0,20947586,203663
OK,81,68,1039,81,2014-08-02T23:55:00,0,20948035,203663
OK,81,68,1039,81,2014-08-03T00:00:00,0,20948484,203663
OK,81,68,1039,81,2014-08-03T00:05:00,0,20948933,203663
OK,81,68,1039,81,2014-08-03T00:10:00,0,20949381,203663
OK,81,68,1039,81,2014-08-03T00:15:00,0,20949830,203663
OK,81,68,1039,81,2014-08-03T00:20:00,0,20950279,203663
OK,81,68,1039,81,2014-08-03T00:25:00,0,20950728,203663
OK,81,68,1039,81,2014-08-03T00:30:00,0,20951177,203663
OK,81,68,1039,81,2014-08-03T00:35:00,0,20951626,203663
OK,81,68,1039,81,2014-08-03T00:40:00,0,20952075,203663
OK,81,68,1039,81,2014-08-03T00:45:00,0,20952524,203663
OK,81,68,1039,81,2014-08-03T00:50:00,0,20952973,203663
OK,81,68,1039,81,2014-08-03T00:55:00,0,20953422,203663
OK,81,68,1039,81,2014-08-03T01:00:00,0,20953871,203663
OK,81,68,1039,81,2014-08-03T01:05:00,0,20954320,203663
OK,81,68,1039,81,2014-08-03T01:10:00,0,20954769,203663
OK,81,68,1039,81,2014-08-03T01:15:00,0,20955218,203663
OK,81,68,1039,81,2014-08-03T01:20:00,0,20955667,203663
OK,81,68,1039,81,2014-08-03T01:25:00,0,20956116,203663
OK,81,68,1039,81,2014-08-03T01:30:00,0,20956565,203663
OK,116,47,1039,116,2014-08-03T01:35:00,1,20957014,203663
OK,116,47,1039,116,2014-08-03T01:40:00,0,20957463,203663
OK,100,55,1039,100,2014-08-03T01:45:00,1,20957912,203663
OK,100,55,1039,100,2014-08-03T01:50:00,0,20958361,203663
OK,100,55,1039,100,2014-08-03T01:55:00,0,20958810,203663
OK,100,55,1039,100,2014-08-03T02:00:00,0,20959259,203663
OK,100,55,1039,100,2014-08-03T02:05:00,0,20959708,203663
OK,100,55,1039,100,2014-08-03T02:10:00,0,20960157,203663
OK,100,55,1039,100,2014-08-03T02:15:00,0,20960606,203663
OK,100,55,1039,100,2014-08-03T02:20:00,0,20961055,203663
OK,100,55,1039,100,2014-08-03T02:25:00,0,20961504,203663
OK,100,55,1039,100,2014-08-03T02:30:00,0,20961953,203663
OK,100,55,1039,100,2014-08-03T02:35:00,0,20962402,203663
OK,100,55,1039,100,2014-08-03T02:40:00,0,20962851,203663
OK,100,55,1039,100,2014-08-03T02:45:00,0,20963300,203663
OK,100,55,1039,100,2014-08-03T02:50:00,0,20963749,203663
OK,100,55,1039,100,2014-08-03T02:55:00,0,20964198,203663
OK,100,55,1039,100,2014-08-03T03:00:00,0,20964647,203663
OK,100,55,1039,100,2014-08-03T03:05:00,0,20965096,203663
OK,100,55,1039,100,2014-08-03T03:10:00,0,20965545,203663
OK,100,55,1039,100,2014-08-03T03:15:00,0,20965994,203663
OK,100,55,1039,100,2014-08-03T03:20:00,0,20966443,203663
OK,100,55,1039,100,2014-08-03T03:25:00,0,20966892,203663
OK,100,55,1039,100,2014-08-03T03:30:00,0,20967341,203663
OK,100,55,1039,100,2014-08-03T03:35:00,0,20967790,203663
OK,100,55,1039,100,2014-08-03T03:40:00,0,20968239,203663
OK,100,55,1039,100,2014-08-03T03:45:00,0,20968688,203663
OK,100,55,1039,100,2014-08-03T03:50:00,0,20969137,203663
OK,100,55,1039,100,2014-08-03T03:55:00,0,20969586,203663
OK,113,48,1039,113,2014-08-03T05:00:00,0,20975052,203663
OK,113,48,1039,113,2014-08-03T06:00:00,0,20980022,203663